QPF
0.03 0.03 0.03 0.03 0.03 0.02 0.01 0.00 0.01 0.01 0.01 0.02 0.02 0.01 0.01 0.01 0.02 0.03 0.06 0.05 0.05 0.07 0.08 0.08 0.08 0.07 0.06 0.06 0.06 0.05 0.04 0.03 0.03 0.03 0.03 0.02 0.03 0.03 0.03 0.02 0.01 0.01 0.00
0.03 0.03 0.03 0.03 0.02 0.02 0.02 0.01 0.01 0.01 0.01 0.01 0.01 0.01 0.01 0.01 0.01 0.02 0.03 0.03 0.04 0.04 0.05 0.08 0.08 0.09 0.08 0.06 0.06 0.05 0.04 0.03 0.03 0.03 0.03 0.01 0.01 0.03 0.04 0.02 0.03 0.02 0.01
0.06 0.04 0.05 0.04 0.02 0.02 0.02 0.03 0.02 0.01 0.00 0.00 0.01 0.01 0.01 0.01 0.02 0.02 0.02 0.02 0.03 0.03 0.04 0.06 0.08 0.09 0.10 0.09 0.08 0.07 0.05 0.04 0.03 0.03 0.02 0.02 0.02 0.03 0.04 0.04 0.03 0.03 0.02
0.09 0.06 0.05 0.05 0.05 0.04 0.03 0.03 0.03 0.02 0.01 0.00 0.00 0.01 0.01 0.01 0.01 0.02 0.02 0.01 0.02 0.02 0.03 0.04 0.06 0.08 0.09 0.08 0.09 0.09 0.08 0.05 0.03 0.03 0.02 0.02 0.01 0.02 0.04 0.05 0.05 0.03 0.02
0.08 0.08 0.07 0.05 0.05 0.06 0.06 0.05 0.04 0.04 0.03 0.01 0.01 0.01 0.01 0.01 0.01 0.01 0.01 0.01 0.01 0.02 0.03 0.04 0.05 0.06 0.07 0.08 0.08 0.09 0.08 0.06 0.04 0.04 0.03 0.02 0.01 0.01 0.02 0.03 0.04 0.03 0.03
0.04 0.06 0.05 0.05 0.05 0.05 0.05 0.04 0.04 0.04 0.04 0.04 0.02 0.01 0.01 0.01 0.01 0.02 0.02 0.02 0.02 0.02 0.03 0.03 0.04 0.04 0.04 0.05 0.07 0.08 0.08 0.07 0.05 0.04 0.03 0.03 0.02 0.01 0.02 0.03 0.03 0.02 0.03
0.03 0.03 0.04 0.03 0.04 0.05 0.04 0.03 0.03 0.03 0.04 0.04 0.04 0.03 0.02 0.01 0.01 0.02 0.02 0.01 0.02 0.02 0.03 0.02 0.03 0.03 0.02 0.03 0.04 0.05 0.07 0.07 0.07 0.06 0.04 0.03 0.02 0.02 0.02 0.03 0.04 0.03 0.03
0.03 0.02 0.02 0.02 0.02 0.03 0.04 0.04 0.04 0.03 0.03 0.04 0.05 0.04 0.03 0.02 0.01 0.01 0.01 0.01 0.02 0.02 0.02 0.02 0.02 0.02 0.02 0.02 0.02 0.02 0.03 0.05 0.06 0.07 0.07 0.06 0.04 0.03 0.03 0.04 0.04 0.03 0.03
0.02 0.02 0.02 0.01 0.01 0.01 0.02 0.03 0.04 0.04 0.03 0.04 0.04 0.05 0.05 0.04 0.03 0.02 0.01 0.01 0.02 0.02 0.02 0.02 0.01 0.01 0.01 0.02 0.02 0.02 0.02 0.03 0.05 0.06 0.07 0.07 0.07 0.07 0.05 0.04 0.04 0.02 0.02
0.03 0.03 0.03 0.02 0.01 0.01 0.01 0.01 0.03 0.04 0.03 0.03 0.03 0.03 0.04 0.04 0.04 0.04 0.03 0.02 0.03 0.02 0.02 0.01 0.01 0.01 0.01 0.01 0.01 0.02 0.02 0.03 0.04 0.06 0.07 0.08 0.09 0.08 0.07 0.07 0.07 0.05 0.04
0.05 0.04 0.04 0.03 0.02 0.01 0.01 0.01 0.01 0.02 0.03 0.03 0.02 0.02 0.02 0.03 0.03 0.03 0.03 0.03 0.03 0.04 0.03 0.02 0.02 0.02 0.02 0.01 0.01 0.01 0.02 0.03 0.05 0.06 0.06 0.08 0.10 0.10 0.10 0.09 0.09 0.09 0.07
0.07 0.05 0.05 0.04 0.03 0.02 0.02 0.02 0.01 0.02 0.02 0.03 0.03 0.02 0.02 0.02 0.03 0.04 0.04 0.04 0.04 0.04 0.04 0.04 0.04 0.03 0.03 0.03 0.02 0.02 0.02 0.03 0.04 0.04 0.04 0.05 0.06 0.07 0.08 0.10 0.10 0.09 0.08
0.09 0.07 0.05 0.05 0.05 0.04 0.02 0.02 0.02 0.02 0.02 0.02 0.02 0.02 0.02 0.03 0.03 0.03 0.04 0.05 0.05 0.06 0.06 0.05 0.05 0.04 0.04 0.04 0.05 0.05 0.05 0.04 0.03 0.02 0.02 0.03 0.03 0.04 0.05 0.07 0.09 0.10 0.09
0.22 0.12 0.07 0.06 0.05 0.05 0.05 0.04 0.03 0.03 0.02 0.02 0.02 0.02 0.03 0.03 0.03 0.02 0.03 0.03 0.03 0.04 0.04 0.04 0.04 0.03 0.03 0.03 0.04 0.06 0.06 0.05 0.04 0.02 0.02 0.02 0.01 0.02 0.03 0.04 0.06 0.07 0.07
0.20 0.21 0.13 0.09 0.07 0.06 0.06 0.06 0.05 0.04 0.03 0.03 0.03 0.03 0.03 0.03 0.03 0.03 0.02 0.03 0.03 0.03 0.02 0.02 0.02 0.02 0.02 0.02 0.03 0.03 0.04 0.04 0.04 0.03 0.02 0.02 0.01 0.01 0.01 0.02 0.04 0.05 0.06
0.14 0.20 0.21 0.15 0.11 0.09 0.08 0.06 0.06 0.05 0.04 0.04 0.03 0.04 0.04 0.04 0.03 0.03 0.03 0.02 0.03 0.03 0.03 0.02 0.01 0.01 0.02 0.02 0.02 0.02 0.02 0.02 0.03 0.03 0.03 0.02 0.01 0.01 0.01 0.01 0.02 0.04 0.06
0.11 0.13 0.18 0.20 0.17 0.13 0.10 0.09 0.07 0.06 0.06 0.05 0.05 0.05 0.04 0.04 0.04 0.04 0.03 0.03 0.03 0.03 0.03 0.02 0.01 0.01 0.02 0.02 0.02 0.02 0.01 0.01 0.01 0.02 0.02 0.02 0.02 0.02 0.01 0.01 0.01 0.02 0.05
0.08 0.08 0.09 0.12 0.15 0.14 0.11 0.09 0.09 0.08 0.07 0.06 0.06 0.06 0.05 0.04 0.04 0.03 0.03 0.03 0.03 0.03 0.03 0.03 0.02 0.01 0.01 0.02 0.02 0.02 0.02 0.02 0.02 0.01 0.01 0.02 0.02 0.02 0.01 0.01 0.01 0.01 0.02
0.08 0.07 0.06 0.06 0.08 0.09 0.09 0.07 0.07 0.08 0.08 0.07 0.07 0.06 0.06 0.05 0.04 0.04 0.03 0.03 0.02 0.02 0.02 0.03 0.03 0.02 0.01 0.01 0.02 0.03 0.03 0.03 0.02 0.01 0.01 0.01 0.02 0.03 0.02 0.02 0.02 0.02 0.02
0.10 0.10 0.07 0.05 0.04 0.05 0.06 0.06 0.05 0.05 0.07 0.08 0.08 0.07 0.06 0.06 0.05 0.04 0.04 0.04 0.03 0.03 0.03 0.03 0.03 0.02 0.02 0.01 0.02 0.02 0.03 0.03 0.03 0.02 0.02 0.02 0.03 0.03 0.03 0.02 0.02 0.01 0.01
0.08 0.09 0.08 0.06 0.04 0.04 0.04 0.04 0.05 0.05 0.05 0.05 0.07 0.07 0.06 0.06 0.06 0.06 0.05 0.04 0.04 0.04 0.04 0.03 0.03 0.02 0.02 0.02 0.01 0.01 0.01 0.02 0.03 0.03 0.03 0.03 0.03 0.04 0.04 0.03 0.02 0.02 0.02
0.07 0.08 0.07 0.06 0.05 0.04 0.03 0.04 0.06 0.06 0.05 0.05 0.05 0.05 0.05 0.06 0.06 0.06 0.05 0.04 0.04 0.04 0.05 0.04 0.03 0.03 0.02 0.02 0.01 0.01 0.02 0.02 0.02 0.02 0.03 0.04 0.03 0.03 0.03 0.03 0.02 0.01 0.01
0.04 0.05 0.05 0.04 0.05 0.05 0.05 0.05 0.06 0.06 0.05 0.05 0.05 0.05 0.05 0.06 0.06 0.06 0.06 0.05 0.04 0.04 0.05 0.05 0.04 0.03 0.02 0.02 0.02 0.02 0.02 0.02 0.02 0.01 0.02 0.03 0.04 0.03 0.03 0.02 0.02 0.01 0.01
0.03 0.04 0.05 0.04 0.04 0.05 0.06 0.06 0.06 0.05 0.04 0.04 0.05 0.06 0.06 0.06 0.06 0.06 0.06 0.06 0.04 0.03 0.03 0.04 0.04 0.03 0.02 0.02 0.02 0.02 0.03 0.03 0.02 0.02 0.02 0.03 0.03 0.03 0.03 0.03 0.02 0.02 0.01
0.03 0.03 0.04 0.04 0.05 0.05 0.06 0.06 0.07 0.06 0.05 0.05 0.05 0.05 0.06 0.05 0.05 0.05 0.05 0.05 0.05 0.04 0.03 0.04 0.04 0.04 0.03 0.03 0.02 0.03 0.03 0.03 0.03 0.02 0.02 0.03 0.03 0.03 0.03 0.03 0.03 0.03 0.02
0.03 0.03 0.03 0.04 0.04 0.05 0.06 0.07 0.08 0.07 0.07 0.07 0.07 0.07 0.07 0.06 0.07 0.06 0.04 0.04 0.04 0.04 0.03 0.03 0.03 0.04 0.03 0.03 0.02 0.02 0.03 0.03 0.03 0.03 0.02 0.03 0.03 0.02 0.03 0.03 0.03 0.03 0.03
MSLP
1027.21 1026.61 1025.99 1025.36 1024.74 1024.14 1023.57 1023.01 1022.44 1021.86 1021.23 1020.57 1019.89 1019.21 1018.57 1018.01 1017.56 1017.21 1016.96 1016.78 1016.61 1016.44 1016.23 1015.97 1015.69 1015.42 1015.19 1015.07 1015.05 1015.17 1015.39 1015.70 1016.04 1016.39 1016.70 1016.96 1017.18 1017.36 1017.53 1017.70 1017.89 1018.09 1018.30
1027.90 1027.26 1026.58 1025.89 1025.22 1024.58 1023.97 1023.39 1022.80 1022.18 1021.52 1020.81 1020.06 1019.30 1018.59 1017.95 1017.42 1017.02 1016.72 1016.51 1016.33 1016.15 1015.93 1015.68 1015.39 1015.11 1014.87 1014.71 1014.67 1014.76 1014.96 1015.25 1015.59 1015.94 1016.28 1016.58 1016.84 1017.06 1017.27 1017.46 1017.66 1017.86 1018.06
1028.57 1027.89 1027.17 1026.43 1025.72 1025.05 1024.42 1023.82 1023.22 1022.58 1021.88 1021.11 1020.30 1019.46 1018.66 1017.92 1017.30 1016.82 1016.46 1016.19 1015.98 1015.79 1015.57 1015.32 1015.04 1014.75 1014.51 1014.33 1014.26 1014.31 1014.48 1014.74 1015.06 1015.41 1015.76 1016.08 1016.37 1016.64 1016.88 1017.11 1017.33 1017.55 1017.76
1029.17 1028.48 1027.73 1026.98 1026.24 1025.56 1024.92 1024.31 1023.70 1023.04 1022.32 1021.50 1020.62 1019.71 1018.81 1017.98 1017.26 1016.68 1016.23 1015.90 1015.64 1015.41 1015.18 1014.92 1014.64 1014.36 1014.11 1013.92 1013.82 1013.82 1013.94 1014.15 1014.44 1014.76 1015.09 1015.42 1015.74 1016.03 1016.31 1016.59 1016.85 1017.10 1017.34
1029.69 1029.00 1028.25 1027.49 1026.76 1026.08 1025.45 1024.85 1024.24 1023.58 1022.83 1021.98 1021.05 1020.07 1019.09 1018.16 1017.33 1016.65 1016.10 1015.68 1015.35 1015.07 1014.81 1014.53 1014.24 1013.95 1013.69 1013.47 1013.33 1013.29 1013.35 1013.49 1013.72 1013.99 1014.29 1014.61 1014.93 1015.25 1015.57 1015.88 1016.20 1016.50 1016.79
1030.10 1029.43 1028.70 1027.96 1027.26 1026.60 1026.00 1025.42 1024.82 1024.16 1023.41 1022.54 1021.57 1020.54 1019.49 1018.48 1017.57 1016.78 1016.14 1015.62 1015.20 1014.85 1014.53 1014.21 1013.89 1013.58 1013.28 1013.03 1012.84 1012.74 1012.73 1012.80 1012.94 1013.15 1013.40 1013.69 1013.99 1014.32 1014.67 1015.03 1015.39 1015.75 1016.10
1030.42 1029.77 1029.08 1028.38 1027.72 1027.11 1026.54 1025.99 1025.41 1024.76 1024.01 1023.14 1022.16 1021.10 1020.02 1018.96 1017.98 1017.11 1016.38 1015.76 1015.25 1014.81 1014.40 1014.02 1013.64 1013.28 1012.94 1012.63 1012.39 1012.22 1012.13 1012.12 1012.19 1012.32 1012.50 1012.74 1013.02 1013.34 1013.70 1014.08 1014.49 1014.89 1015.28
1030.67 1030.05 1029.40 1028.76 1028.15 1027.58 1027.05 1026.52 1025.97 1025.33 1024.60 1023.74 1022.78 1021.73 1020.65 1019.58 1018.57 1017.65 1016.84 1016.13 1015.52 1014.97 1014.47 1014.00 1013.54 1013.10 1012.70 1012.33 1012.03 1011.79 1011.62 1011.54 1011.52 1011.57 1011.69 1011.86 1012.10 1012.39 1012.74 1013.14 1013.56 1013.99 1014.41
1030.86 1030.27 1029.67 1029.08 1028.52 1028.00 1027.50 1026.99 1026.45 1025.84 1025.12 1024.30 1023.37 1022.37 1021.33 1020.29 1019.29 1018.35 1017.49 1016.72 1016.01 1015.36 1014.74 1014.16 1013.60 1013.07 1012.58 1012.15 1011.77 1011.47 1011.24 1011.08 1010.99 1010.97 1011.02 1011.14 1011.32 1011.58 1011.90 1012.27 1012.69 1013.12 1013.55
1031.02 1030.46 1029.91 1029.36 1028.85 1028.35 1027.87 1027.38 1026.84 1026.24 1025.55 1024.77 1023.90 1022.97 1022.00 1021.03 1020.07 1019.15 1018.28 1017.45 1016.66 1015.90 1015.17 1014.46 1013.79 1013.15 1012.58 1012.06 1011.62 1011.26 1010.97 1010.76 1010.62 1010.54 1010.54 1010.60 1010.73 1010.94 1011.22 1011.56 1011.95 1012.35 1012.76
1031.15 1030.63 1030.11 1029.60 1029.11 1028.63 1028.15 1027.65 1027.11 1026.52 1025.85 1025.12 1024.32 1023.47 1022.60 1021.72 1020.83 1019.95 1019.09 1018.23 1017.37 1016.52 1015.67 1014.84 1014.05 1013.31 1012.64 1012.04 1011.54 1011.12 1010.79 1010.53 1010.35 1010.24 1010.19 1010.21 1010.31 1010.48 1010.71 1011.01 1011.36 1011.73 1012.10
1031.25 1030.76 1030.28 1029.79 1029.32 1028.83 1028.34 1027.82 1027.26 1026.66 1026.01 1025.31 1024.59 1023.83 1023.06 1022.28 1021.48 1020.66 1019.82 1018.95 1018.04 1017.11 1016.17 1015.23 1014.32 1013.47 1012.70 1012.03 1011.46 1010.99 1010.62 1010.33 1010.13 1009.99 1009.92 1009.92 1009.99 1010.13 1010.34 1010.60 1010.91 1011.24 1011.58
1031.33 1030.86 1030.40 1029.93 1029.46 1028.96 1028.43 1027.88 1027.29 1026.67 1026.02 1025.36 1024.70 1024.02 1023.35 1022.66 1021.95 1021.20 1020.40 1019.53 1018.59 1017.60 1016.58 1015.54 1014.53 1013.58 1012.72 1011.97 1011.33 1010.81 1010.40 1010.09 1009.87 1009.72 1009.65 1009.64 1009.71 1009.84 1010.03 1010.28 1010.57 1010.88 1011.20
1031.36 1030.92 1030.47 1030.01 1029.53 1029.00 1028.44 1027.84 1027.22 1026.57 1025.92 1025.28 1024.66 1024.05 1023.45 1022.85 1022.22 1021.53 1020.77 1019.91 1018.96 1017.94 1016.86 1015.75 1014.66 1013.63 1012.68 1011.85 1011.15 1010.57 1010.11 1009.77 1009.53 1009.38 1009.30 1009.31 1009.39 1009.53 1009.74 1010.00 1010.29 1010.60 1010.92
1031.33 1030.92 1030.49 1030.03 1029.52 1028.98 1028.38 1027.74 1027.07 1026.40 1025.73 1025.10 1024.50 1023.94 1023.40 1022.85 1022.28 1021.65 1020.92 1020.09 1019.15 1018.11 1017.01 1015.86 1014.71 1013.62 1012.60 1011.70 1010.92 1010.27 1009.76 1009.37 1009.10 1008.94 1008.87 1008.89 1009.00 1009.18 1009.42 1009.71 1010.03 1010.37 1010.70
1031.24 1030.85 1030.43 1029.97 1029.45 1028.88 1028.25 1027.58 1026.88 1026.18 1025.50 1024.86 1024.28 1023.74 1023.22 1022.72 1022.18 1021.59 1020.90 1020.10 1019.19 1018.17 1017.06 1015.90 1014.73 1013.59 1012.52 1011.55 1010.69 1009.97 1009.38 1008.93 1008.61 1008.42 1008.36 1008.40 1008.54 1008.76 1009.06 1009.40 1009.77 1010.14 1010.51
1031.08 1030.71 1030.30 1029.84 1029.31 1028.73 1028.08 1027.38 1026.67 1025.95 1025.26 1024.62 1024.03 1023.49 1022.99 1022.50 1021.98 1021.41 1020.76 1020.00 1019.13 1018.14 1017.07 1015.93 1014.77 1013.61 1012.49 1011.46 1010.52 1009.71 1009.03 1008.50 1008.12 1007.90 1007.81 1007.87 1008.04 1008.31 1008.67 1009.07 1009.50 1009.92 1010.31
1030.86 1030.50 1030.09 1029.63 1029.10 1028.51 1027.86 1027.16 1026.45 1025.73 1025.04 1024.39 1023.80 1023.25 1022.74 1022.25 1021.74 1021.18 1020.56 1019.84 1019.02 1018.09 1017.07 1015.98 1014.84 1013.68 1012.54 1011.45 1010.43 1009.53 1008.75 1008.13 1007.68 1007.40 1007.30 1007.35 1007.55 1007.87 1008.28 1008.74 1009.22 1009.67 1010.09
1030.58 1030.22 1029.82 1029.35 1028.83 1028.24 1027.60 1026.92 1026.22 1025.51 1024.83 1024.19 1023.59 1023.03 1022.50 1021.99 1021.48 1020.93 1020.33 1019.65 1018.89 1018.03 1017.08 1016.04 1014.94 1013.80 1012.64 1011.50 1010.41 1009.41 1008.53 1007.82 1007.28 1006.95 1006.82 1006.87 1007.10 1007.46 1007.92 1008.43 1008.94 1009.42 1009.84
1030.23 1029.87 1029.46 1029.00 1028.48 1027.91 1027.29 1026.63 1025.96 1025.28 1024.62 1023.99 1023.38 1022.81 1022.26 1021.73 1021.20 1020.65 1020.07 1019.43 1018.72 1017.93 1017.05 1016.08 1015.02 1013.89 1012.72 1011.54 1010.38 1009.29 1008.32 1007.51 1006.91 1006.52 1006.37 1006.43 1006.68 1007.08 1007.58 1008.13 1008.67 1009.16 1009.56
1029.83 1029.46 1029.04 1028.58 1028.07 1027.51 1026.92 1026.29 1025.66 1025.01 1024.38 1023.75 1023.15 1022.56 1021.99 1021.44 1020.88 1020.33 1019.75 1019.13 1018.47 1017.74 1016.92 1016.00 1014.98 1013.87 1012.69 1011.47 1010.25 1009.09 1008.03 1007.15 1006.49 1006.06 1005.89 1005.97 1006.25 1006.69 1007.24 1007.83 1008.39 1008.88 1009.26
1029.37 1028.99 1028.56 1028.10 1027.59 1027.05 1026.48 1025.89 1025.29 1024.68 1024.07 1023.46 1022.85 1022.25 1021.66 1021.07 1020.49 1019.91 1019.33 1018.73 1018.10 1017.40 1016.63 1015.75 1014.76 1013.66 1012.46 1011.20 1009.93 1008.70 1007.58 1006.64 1005.93 1005.50 1005.33 1005.44 1005.77 1006.27 1006.87 1007.51 1008.10 1008.60 1008.97
1028.87 1028.48 1028.04 1027.56 1027.06 1026.52 1025.98 1025.41 1024.84 1024.26 1023.67 1023.07 1022.46 1021.85 1021.23 1020.61 1020.00 1019.40 1018.80 1018.20 1017.58 1016.90 1016.15 1015.29 1014.31 1013.20 1011.98 1010.68 1009.35 1008.07 1006.90 1005.93 1005.20 1004.77 1004.64 1004.79 1005.19 1005.76 1006.44 1007.14 1007.79 1008.32 1008.69
1028.34 1027.93 1027.48 1026.99 1026.48 1025.96 1025.42 1024.88 1024.33 1023.77 1023.19 1022.59 1021.98 1021.34 1020.70 1020.05 1019.40 1018.77 1018.16 1017.54 1016.91 1016.24 1015.48 1014.62 1013.63 1012.50 1011.25 1009.91 1008.54 1007.21 1006.01 1005.00 1004.28 1003.87 1003.78 1004.01 1004.49 1005.16 1005.94 1006.72 1007.44 1008.03 1008.45
1027.79 1027.37 1026.90 1026.41 1025.90 1025.37 1024.83 1024.30 1023.76 1023.21 1022.64 1022.04 1021.42 1020.77 1020.10 1019.42 1018.75 1018.09 1017.45 1016.82 1016.17 1015.48 1014.71 1013.83 1012.82 1011.65 1010.36 1008.97 1007.56 1006.19 1004.95 1003.94 1003.22 1002.84 1002.81 1003.11 1003.69 1004.46 1005.35 1006.25 1007.07 1007.76 1008.26
1027.22 1026.80 1026.33 1025.82 1025.30 1024.77 1024.23 1023.70 1023.16 1022.62 1022.05 1021.46 1020.82 1020.16 1019.48 1018.78 1018.09 1017.41 1016.75 1016.10 1015.43 1014.72 1013.94 1013.03 1011.98 1010.78 1009.44 1008.01 1006.55 1005.14 1003.87 1002.84 1002.13 1001.77 1001.79 1002.16 1002.82 1003.70 1004.70 1005.73 1006.68 1007.49 1008.11
Thickness
5623 5624 5625 5626 5627 5629 5630 5631 5633 5635 5636 5638 5640 5642 5644 5646 5647 5649 5649 5649 5650 5651 5652 5653 5654 5654 5654 5655 5655 5654 5654 5653 5652 5652 5651 5650 5649 5649 5648 5647 5646 5645 5644
5613 5615 5617 5617 5619 5620 5621 5622 5624 5626 5628 5629 5631 5633 5635 5638 5640 5642 5643 5643 5644 5645 5646 5647 5648 5649 5649 5649 5649 5649 5648 5648 5647 5646 5646 5645 5644 5644 5643 5642 5641 5640 5639
5603 5605 5607 5609 5610 5610 5612 5613 5615 5617 5619 5621 5623 5624 5627 5629 5631 5634 5636 5637 5638 5638 5640 5641 5642 5642 5643 5643 5643 5643 5642 5641 5641 5640 5640 5640 5639 5638 5638 5637 5636 5635 5634
5593 5595 5597 5599 5600 5601 5603 5605 5606 5608 5610 5612 5614 5616 5618 5620 5623 5625 5628 5630 5632 5633 5634 5635 5636 5636 5637 5637 5637 5637 5636 5636 5635 5634 5634 5634 5633 5633 5632 5631 5630 5629 5628
5582 5585 5587 5588 5590 5591 5593 5595 5597 5599 5600 5602 5604 5606 5609 5612 5614 5617 5620 5622 5623 5625 5627 5628 5629 5630 5630 5630 5630 5631 5631 5630 5630 5629 5628 5628 5627 5627 5626 5626 5625 5624 5623
5572 5574 5576 5577 5579 5582 5583 5586 5588 5589 5590 5592 5594 5596 5599 5602 5605 5608 5610 5613 5615 5617 5619 5621 5622 5623 5623 5624 5624 5625 5625 5624 5624 5623 5623 5622 5622 5621 5621 5620 5619 5618 5617
5560 5562 5564 5566 5568 5571 5573 5575 5577 5579 5580 5582 5584 5587 5590 5593 5596 5598 5601 5604 5606 5608 5610 5612 5614 5616 5616 5616 5617 5618 5619 5618 5618 5618 5618 5617 5616 5616 5615 5615 5614 5613 5611
5549 5551 5553 5555 5557 5559 5561 5564 5566 5568 5570 5572 5575 5577 5581 5584 5587 5589 5591 5594 5597 5599 5601 5603 5606 5607 5609 5609 5610 5611 5611 5612 5612 5612 5612 5612 5611 5610 5610 5609 5608 5607 5606
5537 5539 5541 5543 5546 5548 5550 5552 5554 5557 5560 5561 5564 5568 5572 5577 5578 5580 5582 5584 5587 5589 5592 5594 5596 5598 5600 5601 5602 5603 5604 5604 5605 5605 5606 5606 5606 5605 5604 5603 5602 5601 5600
5525 5527 5529 5532 5534 5536 5538 5540 5542 5545 5548 5550 5552 5555 5561 5566 5567 5570 5572 5575 5577 5579 5581 5584 5586 5588 5590 5592 5594 5595 5597 5597 5598 5598 5599 5599 5600 5599 5598 5598 5597 5595 5594
5512 5514 5517 5520 5522 5524 5526 5528 5531 5533 5536 5540 5542 5544 5547 5551 5556 5559 5563 5565 5566 5568 5571 5574 5577 5579 5582 5584 5585 5587 5589 5589 5590 5591 5592 5592 5593 5593 5592 5591 5590 5589 5587
5498 5501 5504 5507 5509 5512 5514 5516 5519 5521 5525 5529 5532 5534 5537 5541 5545 5549 5554 5556 5557 5559 5560 5564 5567 5570 5572 5574 5577 5578 5580 5581 5581 5583 5583 5584 5584 5585 5584 5584 5583 5583 5581
5485 5488 5490 5494 5496 5499 5501 5504 5506 5510 5513 5517 5521 5524 5527 5530 5534 5538 5541 5544 5546 5549 5550 5553 5556 5559 5562 5564 5567 5568 5570 5571 5573 5574 5575 5575 5575 5576 5576 5576 5575 5574 5573
5470 5473 5475 5479 5482 5485 5488 5491 5494 5497 5501 5505 5509 5512 5515 5518 5521 5525 5529 5532 5534 5538 5542 5545 5546 5549 5551 5554 5557 5558 5561 5562 5563 5564 5565 5565 5566 5566 5566 5566 5566 5566 5565
5454 5458 5461 5464 5468 5471 5475 5478 5481 5485 5488 5491 5496 5499 5502 5506 5508 5512 5516 5521 5524 5529 5534 5536 5537 5539 5540 5543 5545 5548 5551 5553 5554 5555 5556 5556 5556 5556 5556 5557 5556 5556 5556
5438 5443 5446 5450 5454 5458 5461 5464 5468 5471 5474 5478 5482 5486 5489 5493 5496 5499 5504 5509 5513 5518 5523 5526 5527 5528 5529 5532 5534 5537 5540 5542 5544 5545 5546 5546 5547 5547 5547 5547 5547 5547 5546
5423 5428 5432 5436 5441 5445 5448 5451 5454 5458 5461 5465 5468 5473 5476 5479 5483 5487 5491 5495 5500 5505 5508 5512 5513 5516 5518 5521 5523 5526 5529 5531 5534 5535 5536 5536 5537 5537 5537 5537 5537 5537 5537
5409 5414 5419 5423 5427 5431 5435 5438 5442 5445 5448 5452 5455 5459 5463 5466 5470 5475 5479 5483 5488 5493 5496 5500 5502 5504 5507 5510 5512 5515 5517 5520 5522 5524 5525 5526 5527 5527 5527 5527 5527 5527 5527
5395 5400 5405 5410 5414 5418 5422 5426 5429 5432 5436 5440 5443 5447 5451 5455 5460 5463 5467 5471 5475 5480 5484 5488 5491 5493 5495 5497 5500 5503 5506 5508 5511 5513 5514 5515 5516 5517 5517 5517 5517 5517 5516
5381 5386 5391 5396 5400 5405 5409 5413 5416 5420 5424 5428 5432 5436 5440 5445 5450 5452 5456 5460 5464 5467 5471 5475 5479 5481 5484 5486 5488 5492 5495 5498 5500 5501 5503 5505 5506 5506 5507 5507 5507 5506 5506
5366 5372 5378 5383 5387 5392 5397 5402 5405 5410 5413 5418 5422 5426 5430 5434 5438 5441 5445 5450 5452 5456 5459 5464 5467 5470 5473 5474 5478 5482 5484 5487 5489 5490 5492 5494 5495 5495 5495 5495 5495 5495 5495
5353 5358 5364 5369 5375 5380 5386 5390 5395 5399 5403 5408 5413 5417 5420 5424 5427 5430 5435 5439 5442 5446 5450 5453 5456 5460 5463 5465 5468 5469 5472 5476 5479 5480 5480 5481 5482 5483 5484 5484 5484 5484 5483
5340 5345 5351 5356 5363 5369 5374 5378 5383 5388 5393 5397 5402 5406 5410 5414 5417 5420 5424 5427 5431 5435 5439 5444 5447 5451 5453 5456 5458 5459 5461 5464 5468 5468 5467 5470 5470 5471 5472 5472 5472 5472 5472
5328 5334 5340 5345 5352 5358 5362 5367 5372 5377 5382 5388 5392 5396 5400 5404 5407 5410 5414 5417 5421 5425 5428 5432 5437 5441 5442 5444 5445 5447 5449 5450 5452 5453 5455 5457 5458 5458 5459 5459 5459 5459 5459
5317 5322 5328 5334 5340 5347 5351 5356 5361 5367 5373 5378 5382 5386 5390 5394 5398 5400 5403 5407 5410 5414 5416 5420 5424 5427 5429 5431 5432 5434 5435 5437 5440 5442 5442 5444 5445 5445 5445 5446 5446 5446 5446
5305 5311 5317 5322 5328 5335 5340 5346 5350 5357 5364 5369 5373 5376 5380 5384 5387 5389 5393 5397 5401 5404 5406 5409 5411 5414 5416 5418 5420 5422 5426 5427 5429 5431 5432 5431 5432 5432 5432 5433 5433 5432 5432